This is the latest recevied weather packets stored in our database for station/object W6MAF. If no packets are shown the sender has not sent any weather packets the latest 10 day(s).
| Time | Temp. | Humidity | Pressure | Rain* | Wind** | Luminosity | Snow |
|---|---|---|---|---|---|---|---|
| 1777867351 | 10° C | 70% | - | 0 mm | 8.05 m/s, 214° | - | - |
| 1777867053 | 10° C | 69% | - | 0 mm | 7.6 m/s, 218° | - | - |
| 1777866756 | 10° C | 68% | - | 0 mm | 7.6 m/s, 211° | - | - |
| 1777866458 | 10° C | 68% | - | 0 mm | 8.94 m/s, 214° | - | - |
| 1777866158 | 10° C | 67% | - | 0 mm | 8.05 m/s, 193° | - | - |
| 1777865860 | 10° C | 67% | - | 0 mm | 8.94 m/s, 190° | - | - |
| 1777865562 | 10.56° C | 65% | - | 0 mm | 6.71 m/s, 201° | - | - |
| 1777865264 | 10.56° C | 65% | - | 0 mm | 6.71 m/s, 198° | - | - |
| 1777864966 | 10.56° C | 65% | - | 0 mm | 5.81 m/s, 177° | - | - |
| 1777864669 | 10.56° C | 65% | - | 0 mm | 5.36 m/s, 176° | - | - |
| 1777864369 | 10.56° C | 65% | - | 0 mm | 8.05 m/s, 143° | - | - |
| 1777864070 | 11.11° C | 66% | - | 0 mm | 7.15 m/s, 169° | - | - |
| 1777863773 | 11.11° C | 66% | - | 0 mm | 8.49 m/s, 187° | - | - |
| 1777863475 | 11.11° C | 66% | - | 0 mm | 6.71 m/s, 183° | - | - |
| 1777863177 | 11.11° C | 66% | - | 0 mm | 6.26 m/s, 180° | - | - |
| 1777862881 | 11.11° C | 66% | - | 0 mm | 4.92 m/s, 169° | - | - |
| 1777862579 | 11.11° C | 66% | - | 0 mm | 5.81 m/s, 190° | - | - |
| 1777862281 | 11.11° C | 65% | - | 0 mm | 4.47 m/s, 188° | - | - |
| 1777861983 | 11.11° C | 65% | - | 0 mm | 4.92 m/s, 184° | - | - |
| 1777861743 | 11.11° C | 64% | - | 0 mm | 5.81 m/s, 197° | - | - |
| 1777861686 | 11.11° C | 64% | - | 0 mm | 5.81 m/s, 197° | - | - |
| 1777861388 | 11.67° C | 64% | - | 0 mm | 4.47 m/s, 174° | - | - |
| 1777861090 | 11.67° C | 64% | - | 0 mm | 6.71 m/s, 169° | - | - |
| 1777860789 | 11.67° C | 63% | - | 0 mm | 5.36 m/s, 190° | - | - |
| 1777860492 | 11.67° C | 62% | - | 0 mm | 7.15 m/s, 205° | - | - |
* Rain latest hour (hover to see other rain measurements)
** Current wind speed in m/s (hover to see current wind gust speed)